logo
Games tagged Turn-Based Combat
# Game Release date
Price
Score rank
(Userscore / Metascore)
Owners
Players
Playtime (Median)
Developer(s)
Publisher(s)
1 Divinity: Original Sin - Enhanced Edition Oct 27, 2015 $39.99N/A (N/A/94%)1,000,000 .. 2,000,0000%00:00 (00:00)Larian StudiosLarian Studios
2 Divinity: Original Sin 2 - Definitive Edition Sep 14, 2017 $44.99N/A (N/A/93%)2,000,000 .. 5,000,0005.56%11:50 (10:39)Larian StudiosLarian Studios
3 Into the Breach Feb 27, 2018 $14.99N/A (N/A/90%)200,000 .. 500,0000%00:00 (00:00)Subset GamesSubset Games
4 Fallout: A Post Nuclear Role Playing Game Sep 30, 1997 $9.99N/A (N/A/89%)2,000,000 .. 5,000,0000%00:00 (00:00)Interplay Inc.Bethesda Softworks
5 West of Loathing Aug 10, 2017 $10.99N/A (N/A/87%)200,000 .. 500,0000%00:00 (00:00)AsymmetricAsymmetric
6 Fallout 2: A Post Nuclear Role Playing Game Dec 1, 1998 $9.99N/A (N/A/86%)1,000,000 .. 2,000,0000%00:00 (00:00)Black Isle StudiosBethesda Softworks
7 STAR WARS Knights of the Old Republic II - The Sith Lords Feb 8, 2005 $9.99N/A (N/A/85%)2,000,000 .. 5,000,0000%00:00 (00:00)Obsidian Entertainment, Aspyr (Mac, Linux, & Windows Update)LucasArts, Disney Interactive, Lucasfilm, Aspyr (Mac, Linux)
8 Wizardry 8 Nov 15, 2001 $9.99N/A (N/A/85%)100,000 .. 200,0000%00:00 (00:00)Sir-Tech CanadaGamepot, Inc., Nightdive Studios
9 The Legend of Heroes: Trails in the Sky Jul 29, 2014 $19.99N/A (N/A/85%)100,000 .. 200,0000%00:00 (00:00)Nihon FalcomXSEED Games, Marvelous USA, Inc.
10 FINAL FANTASY IX Apr 14, 2016 $20.99N/A (N/A/84%)200,000 .. 500,0000%00:00 (00:00)Square EnixSquare Enix
11 Field of Glory II Oct 12, 2017 $29.99N/A (N/A/84%)0 .. 20,000NAN%00:00 (00:00)Byzantine GamesSlitherine Ltd.
12 Darkest Dungeon Jan 19, 2016 $24.99N/A (N/A/84%)2,000,000 .. 5,000,0005.1%06:58 (07:14)Red Hook StudiosRed Hook Studios
13 The Legend of Heroes: Trails in the Sky the 3rd May 3, 2017 $29.99N/A (N/A/83%)20,000 .. 50,0000%00:00 (00:00)Nihon FalcomXSEED Games, Marvelous USA, Inc.
14 Duelyst Aug 23, 2016 FreeN/A (N/A/82%)500,000 .. 1,000,0003.45%08:04 (02:41)Counterplay Games Inc.BANDAI NAMCO Entertainment America
15 Avadon 2: The Corruption Oct 30, 2013 $9.99N/A (N/A/82%)50,000 .. 100,0000%00:00 (00:00)Spiderweb SoftwareSpiderweb Software
16 The Banner Saga 2 Apr 19, 2016 $24.99N/A (N/A/82%)200,000 .. 500,0000%00:00 (00:00)StoicVersus Evil
17 Indivisible Oct 8, 2019 $35.99N/A (N/A/82%)20,000 .. 50,000100%22:42 (22:42)Lab Zero Games505 Games
18 King's Bounty: Armored Princess Nov 19, 2009 $9.99N/A (N/A/82%)200,000 .. 500,0000%00:00 (00:00)Katauri Interactive1C Entertainment
19 Fantasy General II Sep 5, 2019 $39.99N/A (N/A/82%)0 .. 20,000NAN%00:00 (00:00)Owned by GravitySlitherine Ltd.
20 The Banner Saga 3 Jul 26, 2018 $24.99N/A (N/A/82%)50,000 .. 100,0000%00:00 (00:00)StoicVersus Evil
21 Stygian: Reign of the Old Ones Sep 26, 2019 $29.99N/A (N/A/82%)20,000 .. 50,000NAN%00:00 (00:00)Cultic Games1C Entertainment
22 Fell Seal: Arbiter's Mark Apr 30, 2019 $29.99N/A (N/A/82%)50,000 .. 100,0000%00:00 (00:00)6 Eyes Studio1C Entertainment
23 Atlas Reactor Oct 4, 2016 N/AN/A (N/A/81%)500,000 .. 1,000,0000%00:00 (00:00)Trion WorldsTrion Worlds
24 Arcanum: Of Steamworks and Magick Obscura Aug 29, 2016 $5.99N/A (N/A/81%)100,000 .. 200,0000%00:00 (00:00)Troika GamesActivision
25 SteamWorld Heist Jun 7, 2016 $14.99N/A (N/A/81%)500,000 .. 1,000,0000%00:00 (00:00)Image & Form GamesImage & Form Games
26 Torment: Tides of Numenera Jan 26, 2016 $44.99N/A (N/A/81%)100,000 .. 200,0000%00:00 (00:00)inXile EntertainmentinXile Entertainment
27 The Age of Decadence Oct 14, 2015 $14.99N/A (N/A/81%)100,000 .. 200,0000%00:00 (00:00)Iron Tower StudioIron Tower Studio
28 Shadowrun: Hong Kong - Extended Edition Aug 20, 2015 $4.99N/A (N/A/81%)500,000 .. 1,000,0000%00:00 (00:00)Harebrained SchemesParadox Interactive
29 Order of Battle: World War II Apr 30, 2015 FreeN/A (N/A/81%)200,000 .. 500,0000%00:00 (00:00)The ArtistocratsSlitherine Ltd.
30 The Legend of Heroes: Trails of Cold Steel II Feb 14, 2018 $39.99N/A (N/A/81%)50,000 .. 100,0000%00:00 (00:00)Nihon FalcomXSEED Games, Marvelous USA, Inc.
31 The Legend of Heroes: Trails in the Sky SC Oct 29, 2015 $29.99N/A (N/A/80%)50,000 .. 100,0000%00:00 (00:00)Nihon FalcomXSEED Games, Marvelous USA, Inc.
32 The Legend of Heroes: Trails of Cold Steel Aug 2, 2017 $39.99N/A (N/A/80%)100,000 .. 200,0000%00:00 (00:00)Nihon FalcomXSEED Games, Marvelous USA, Inc.
33 Hero-U: Rogue to Redemption Jul 10, 2018 $29.99N/A (N/A/80%)0 .. 20,000NAN%00:00 (00:00)Transolar GamesTransolar Games
34 Card Hunter Jul 13, 2015 FreeN/A (N/A/80%)500,000 .. 1,000,0000%00:00 (00:00)Blue ManchuBlue Manchu
35 Battle Brothers Mar 24, 2017 $29.99N/A (N/A/80%)200,000 .. 500,0000%00:00 (00:00)Overhype StudiosOverhype Studios
36 OCTOPATH TRAVELER Jun 7, 2019 $59.99N/A (N/A/80%)100,000 .. 200,00025%00:01 (00:00)Square Enix, ACQUIRE Corp.Square Enix
37 King's Bounty: The Legend Sep 23, 2008 $6.99N/A (N/A/79%)200,000 .. 500,0000%00:00 (00:00)1C Entertainment1C Entertainment
38 For The King Apr 19, 2018 $19.99N/A (N/A/79%)500,000 .. 1,000,00011.11%04:05 (05:18)IronOak GamesCurve Digital
39 Druidstone: The Secret of the Menhir Forest May 15, 2019 $24.99N/A (N/A/79%)0 .. 20,0000%00:00 (00:00)Ctrl Alt Ninja Ltd.Ctrl Alt Ninja Ltd.
40 King's Bounty: Crossworlds Sep 17, 2010 $14.99N/A (N/A/78%)200,000 .. 500,0000%00:00 (00:00)Katauri Interactive1C Entertainment
41 Battle Chasers: Nightwar Oct 3, 2017 $29.99N/A (N/A/78%)200,000 .. 500,0000%00:00 (00:00)Airship SyndicateTHQ Nordic
42 Mutant Year Zero: Road to Eden Dec 4, 2018 $34.99N/A (N/A/78%)200,000 .. 500,0000%00:00 (00:00)The Bearded LadiesFuncom
43 Shadows of Adam Feb 23, 2017 $14.99N/A (N/A/78%)0 .. 20,000NAN%00:00 (00:00)Something Classic Games LLCSomething Classic Games LLC
44 Pit People Mar 2, 2018 $19.99N/A (N/A/78%)200,000 .. 500,0000%00:00 (00:00)The BehemothThe Behemoth
45 Warhammer 40,000: Mechanicus Nov 15, 2018 $14.99N/A (N/A/78%)50,000 .. 100,0000%00:00 (00:00)Bulwark StudiosKasedo Games
46 Expeditions: Conquistador May 30, 2013 $19.99N/A (N/A/77%)100,000 .. 200,0000%00:00 (00:00)Logic ArtistsTHQ Nordic
47 Battlestar Galactica Deadlock Aug 31, 2017 $39.99N/A (N/A/77%)20,000 .. 50,0000%00:00 (00:00)Black Lab GamesSlitherine Ltd.
48 Cosmic Star Heroine Apr 11, 2017 $14.99N/A (N/A/77%)50,000 .. 100,0000%00:00 (00:00)Zeboyd GamesZeboyd Games
49 Avernum: Escape From the Pit Apr 11, 2012 $9.99N/A (N/A/76%)100,000 .. 200,0000%00:00 (00:00)Spiderweb SoftwareSpiderweb Software
50 Aggressors: Ancient Rome Aug 30, 2018 $29.99N/A (N/A/76%)0 .. 20,000NAN%00:00 (00:00)Kubat SoftwareSlitherine Ltd.
51 Avadon: The Black Fortress Aug 17, 2011 $9.99N/A (N/A/75%)200,000 .. 500,0000%00:00 (00:00)Spiderweb SoftwareSpiderweb Software
52 Field of Glory: Empires Jul 11, 2019 $39.99N/A (N/A/75%)0 .. 20,000NAN%00:00 (00:00)AgeodSlitherine Ltd.
53 Chroma Squad Apr 30, 2015 $14.99N/A (N/A/75%)200,000 .. 500,0000%00:00 (00:00)Behold StudiosBehold Studios
54 Stars in Shadow Jan 19, 2017 $24.99N/A (N/A/75%)20,000 .. 50,0000%00:00 (00:00)Ashdar GamesIceberg Interactive
55 Mordheim: City of the Damned Nov 19, 2015 $6.79N/A (N/A/74%)200,000 .. 500,0000%00:00 (00:00)Rogue FactorFocus Home Interactive
56 Expeditions: Viking Apr 27, 2017 $29.99N/A (N/A/74%)100,000 .. 200,0000%00:00 (00:00)Logic ArtistsTHQ Nordic
57 Dead In Vinland Apr 12, 2018 $19.99N/A (N/A/74%)20,000 .. 50,0000%00:00 (00:00)CCCPDear Villagers
58 Blackguards 2 Jan 20, 2015 $14.99N/A (N/A/74%)200,000 .. 500,0000%00:00 (00:00)Daedalic EntertainmentDaedalic Entertainment
59 Hard West Nov 18, 2015 $19.99N/A (N/A/73%)200,000 .. 500,0000%00:00 (00:00)CreativeForge GamesGood Shepherd Entertainment
60 Halcyon 6: Starbase Commander (LIGHTSPEED EDITION) Aug 9, 2017 $14.99N/A (N/A/73%)20,000 .. 50,0000%00:00 (00:00)Massive Damage, Inc.Massive Damage, Inc.
61 Insidia Feb 27, 2018 FreeN/A (N/A/73%)50,000 .. 100,0000%00:00 (00:00)Bad SeedBad Seed
62 Skulls of the Shogun Jul 29, 2013 $9.99N/A (N/A/72%)100,000 .. 200,0009.09%00:04 (00:01)17-BIT17-BIT
63 UnderRail Dec 18, 2015 $14.99N/A (N/A/72%)200,000 .. 500,0000%00:00 (00:00)Stygian SoftwareStygian Software
64 All Walls Must Fall - A Tech-Noir Tactics Game Feb 23, 2018 $9.99N/A (N/A/72%)0 .. 20,0000%00:00 (00:00)inbetweengamesinbetweengames
65 Hyperdimension Neptunia Re;Birth1 Jan 28, 2015 $14.99N/A (N/A/72%)200,000 .. 500,0000%00:00 (00:00)IDEA FACTORY Co., Ltd., COMPILE HEART Co., Ltd., FELISTELLA Co., Ltd.Idea Factory International, Inc., IDEA FACTORY Co., Ltd.
66 Halcyon 6: Starbase Commander Sep 8, 2016 $14.99N/A (N/A/71%)100,000 .. 200,0000%00:00 (00:00)Massive Damage, Inc.Massive Damage, Inc.
67 Bionic Dues Oct 8, 2013 $9.99N/A (N/A/71%)200,000 .. 500,0000%00:00 (00:00)Arcen Games, LLCArcen Games, LLC
68 Overfall May 17, 2016 $14.99N/A (N/A/71%)20,000 .. 50,0000%00:00 (00:00)Pera Games, Gathering TreePera Games
69 Warhammer 40,000: Gladius - Relics of War Jul 12, 2018 $19.99N/A (N/A/71%)50,000 .. 100,0000%00:00 (00:00)Proxy StudiosSlitherine Ltd.
70 Might & Magic X - Legacy Jan 23, 2014 $24.99N/A (N/A/70%)100,000 .. 200,0000%00:00 (00:00)UbisoftUbisoft
71 ATOM RPG: Post-apocalyptic indie game Dec 19, 2018 $14.99N/A (N/A/70%)200,000 .. 500,00011.11%00:11 (00:03)AtomTeamAtomTeam
72 Deep Sky Derelicts Sep 26, 2018 $19.99N/A (N/A/70%)20,000 .. 50,00011.11%03:37 (01:12)Snowhound Games1C Entertainment
73 RONIN Jun 30, 2015 $12.99N/A (N/A/70%)100,000 .. 200,0000%00:00 (00:00)Tomasz WacławekDevolver Digital
74 Rezrog May 31, 2017 $9.99N/A (N/A/70%)0 .. 20,000NAN%00:00 (00:00)SoaphogKasedo Games
75 Dead State: Reanimated Dec 4, 2014 $19.99N/A (N/A/70%)50,000 .. 100,0000%00:00 (00:00)DoubleBear ProductionsDoubleBear Productions
76 Star Hammer: The Vanguard Prophecy Jun 4, 2015 $19.99N/A (N/A/69%)0 .. 20,0000%00:00 (00:00)Black Lab GamesSlitherine Ltd.
77 TINY METAL Dec 21, 2017 $24.99N/A (N/A/68%)0 .. 20,000NAN%00:00 (00:00)AREA 35Sony Music Entertainment (Japan) Inc. / UNTIES
78 Pathway Apr 11, 2019 $15.99N/A (N/A/68%)20,000 .. 50,000NAN%00:00 (00:00)RobotalityChucklefish
79 WARTILE Feb 8, 2018 $19.99N/A (N/A/68%)20,000 .. 50,0000%00:00 (00:00)Playwood ProjectDeck13, WhisperGames
80 Costume Quest 2 Oct 7, 2014 $14.99N/A (N/A/68%)100,000 .. 200,00012.5%01:32 (00:30)Double Fine ProductionsMidnight City , Majesco Entertainment
81 Last Days of Old Earth Jun 7, 2016 $24.99N/A (N/A/66%)0 .. 20,0000%00:00 (00:00)Auroch DigitalSlitherine Ltd.
82 YIIK: A Postmodern RPG Jan 17, 2019 $19.99N/A (N/A/66%)0 .. 20,0000%00:00 (00:00)Ackk StudiosYsbryd Games
83 The Last Remnant Apr 9, 2009 N/AN/A (N/A/66%)500,000 .. 1,000,0000%00:00 (00:00)Square EnixSquare Enix
84 WARSAW Oct 2, 2019 $23.99N/A (N/A/65%)0 .. 20,000NAN%00:00 (00:00)Pixelated Milkgaming company
85 Ash of Gods: Redemption Mar 23, 2018 $24.99N/A (N/A/65%)20,000 .. 50,0000%00:00 (00:00)AurumDustAurumDust, WhisperGames
86 Skyward Collapse May 23, 2013 $4.99N/A (N/A/64%)100,000 .. 200,0000%00:00 (00:00)Arcen Games, LLCArcen Games, LLC
87 SKYHILL Oct 6, 2015 $14.99N/A (N/A/63%)100,000 .. 200,0000%00:00 (00:00)MandragoraDaedalic Entertainment
88 BLUE REFLECTION / BLUE REFLECTION 幻に舞う少女の剣 Sep 26, 2017 $59.99N/A (N/A/61%)0 .. 20,000NAN%00:00 (00:00)KOEI TECMO GAMES CO., LTD.KOEI TECMO GAMES CO., LTD.
89 Exorder Mar 19, 2018 $12.99N/A (N/A/60%)0 .. 20,0000%00:00 (00:00)Solid9 StudioNo Gravity Games
90 Vambrace: Cold Soul May 28, 2019 $24.99N/A (N/A/59%)0 .. 20,000NAN%00:00 (00:00)Devespresso GamesHeadup, WhisperGames
91 Horizon Feb 6, 2014 $29.99N/A (N/A/58%)50,000 .. 100,0000%00:00 (00:00)L3O InteractiveL3O Interactive
92 Forged of Blood Aug 1, 2019 $29.99N/A (N/A/57%)0 .. 20,000NAN%00:00 (00:00)Critical ForgeCritical Forge
93 Grimshade Mar 26, 2019 $19.99N/A (N/A/54%)0 .. 20,000NAN%00:00 (00:00)TALEROCKAsterion Games
94 Drive on Moscow Oct 27, 2016 $9.99N/A (N/A)0 .. 20,0000%00:00 (00:00)Shenandoah StudioSlitherine Ltd.
95 The Storm Guard: Darkness is Coming Aug 25, 2016 $19.99N/A (N/A)0 .. 20,0000%00:00 (00:00)Bitmen StudiosBitmen Studios
96 The Deep Paths: Labyrinth Of Andokost Oct 26, 2016 $5.99N/A (N/A)20,000 .. 50,0000%00:00 (00:00)Steve JarmanSteve Jarman
97 Farabel Oct 14, 2016 $9.99N/A (N/A)0 .. 20,0000%00:00 (00:00)FrogamesFrogames, Goblinz Digital, indienova
98 Concealed Intent Aug 2, 2016 $14.99N/A (N/A)0 .. 20,000NAN%00:00 (00:00)Jarrah TechnologyJarrah Technology
99 Just Deserts Jul 25, 2016 $9.99N/A (N/A)0 .. 20,0000%00:00 (00:00)Vifth FloorSekai Project
100 Stellar Tactics Sep 22, 2016 $19.99N/A (N/A)20,000 .. 50,0000%00:00 (00:00)Maverick GamesMaverick Games
101 Expect The Unexpected Dec 8, 2016 $6.99N/A (N/A)0 .. 20,0000%00:00 (00:00)GoldenGod GamesGoldenGod Games
102 Heroes of the Monkey Tavern Sep 22, 2016 $9.99N/A (N/A)0 .. 20,0000%00:00 (00:00)Monkey StoriesMonkey Stories
103 Disgraced Nov 18, 2016 $9.99N/A (N/A)0 .. 20,0000%00:00 (00:00)Corrosive Studios LLCCorrosive Studios LLC
104 Doom & Destiny Advanced Nov 15, 2016 $9.99N/A (N/A)20,000 .. 50,000NAN%00:00 (00:00)Heartbit InteractiveHeartbit Interactive
105 Dungeon Rushers: Crawler RPG Sep 6, 2016 $14.99N/A (N/A)50,000 .. 100,0000%00:00 (00:00)Goblinz StudioGoblinz Studio, WhisperGames
106 Dungeon Rats Nov 4, 2016 $8.99N/A (N/A)20,000 .. 50,0000%00:00 (00:00)Iron Tower StudioIron Tower Studio
107 WWII英雄列伝 最強の虎 クルト・クニスペル Dec 13, 2017 $24.99N/A (N/A)0 .. 20,000NAN%00:00 (00:00)Flying Panjandrum / ふらいんぐパンジャンドラムFlying Panjandrum / ふらいんぐパンジャンドラム
108 Dark Gnome Mar 18, 2019 FreeN/A (N/A)20,000 .. 50,000NAN%00:00 (00:00)upjersupjers
109 Warring States Jan 29, 2018 $18.99N/A (N/A)0 .. 20,000NAN%00:00 (00:00)polynation games ltdpolynation games ltd
110 Deck of Ashes Apr 11, 2019 $14.99N/A (N/A)0 .. 20,0000%00:00 (00:00)AYGamesAYGames, WhisperGames
111 Strike Team Hydra Dec 8, 2017 $6.99N/A (N/A)0 .. 20,0000%00:00 (00:00)Wave Light Games Inc.Wave Light Games Inc.
112 Monads Feb 15, 2019 $9.99N/A (N/A)0 .. 20,000NAN%00:00 (00:00)Team MonadPsychoFlux Entertainment
113 Dust and Salt Jan 25, 2018 $7.99N/A (N/A)0 .. 20,000NAN%00:00 (00:00)Prime GamesPrime Games
114 Sin Slayers: The First Sin Apr 11, 2019 FreeN/A (N/A)20,000 .. 50,000NAN%00:00 (00:00)goonswarmBlack Tower Entertainment
115 Shadowhand: RPG Card Game Dec 7, 2017 $14.99N/A (N/A)0 .. 20,00033.33%01:51 (00:55)Grey Alien GamesPositech Games
116 Element: Space Feb 14, 2019 $24.99N/A (N/A)0 .. 20,0000%00:00 (00:00)Sixth VowelInca Games
117 LEGRAND LEGACY: Tale of the Fatebounds Jan 24, 2018 $19.99N/A (N/A)0 .. 20,0000%00:00 (00:00)SEMISOFTAnother Indie, Mayflower Entertainment [KR]
118 武林志(Wushu Chronicles) Apr 9, 2019 $12.99N/A (N/A)50,000 .. 100,000NAN%00:00 (00:00)JiangHu StudioSnail Games
119 the Line Dec 7, 2017 $3.99N/A (N/A)0 .. 20,0000%00:00 (00:00)Marginal actMarginal act
120 M.E.M.E.S. Feb 8, 2019 $6.99N/A (N/A)0 .. 20,000NAN%00:00 (00:00)M.E.M.E. Studios, Rafal KorbaczynskiRafal Korbaczynski
121 Troubleshooter Dec 30, 2017 $19.99N/A (N/A)20,000 .. 50,000NAN%00:00 (00:00)DandylionDandylion
122 Even For Eternia Apr 8, 2019 $8.99N/A (N/A)0 .. 20,000NAN%00:00 (00:00)Devils Advocate GamingDevils Advocate Gaming
123 ばるばろっさ! ~すすめ? 赤軍少女旅団~(全年齢版) Feb 8, 2018 $14.99N/A (N/A)0 .. 20,000NAN%00:00 (00:00)Flying Panjandrum / ふらいんぐパンジャンドラムFlying Panjandrum / ふらいんぐパンジャンドラム
124 Dragon Iris Feb 1, 2019 $1.99N/A (N/A)0 .. 20,000NAN%00:00 (00:00)Leonardo M A SilvaConsttelattions
125 Skylight Dec 28, 2017 $14.99N/A (N/A)0 .. 20,000NAN%00:00 (00:00)E McNeillE McNeill
126 中华三国志 the Three Kingdoms of China Mar 30, 2019 FreeN/A (N/A)100,000 .. 200,000NAN%00:00 (00:00)中三之家中三之家
127 Warriors: Rise to Glory! Feb 2, 2018 $9.99N/A (N/A)20,000 .. 50,000NAN%00:00 (00:00)Gavra GamesGavra Games
128 Strategic Mind: The Pacific Apr 30, 2019 $29.99N/A (N/A)0 .. 20,000NAN%00:00 (00:00)Starni GamesStarni Games
129 White Pearl Dec 23, 2017 FreeN/A (N/A)20,000 .. 50,000NAN%00:00 (00:00)Harry GillHarry Gill
130 Tangledeep Feb 1, 2018 $14.99N/A (N/A)20,000 .. 50,0000%00:00 (00:00)Impact GameworksImpact Gameworks
131 Swords and Sandals Classic Collection Apr 18, 2019 $9.99N/A (N/A)0 .. 20,000NAN%00:00 (00:00)Whiskeybarrel Studioshttp://www.egames.com
132 Dimension Of Gameth Mar 26, 2019 FreeN/A (N/A)0 .. 20,000NAN%00:00 (00:00)GamegrustudioGamegrustudio
133 Necromancer Returns Feb 1, 2018 $9.99N/A (N/A)0 .. 20,0000%00:00 (00:00)Greenolor StudioGreenolor Studio
134 Tropia Apr 17, 2019 $3.99N/A (N/A)0 .. 20,000NAN%00:00 (00:00)Street Gaming IncBajoGames
135 Knockout Checkers Chamber Dec 8, 2017 $4.99N/A (N/A)0 .. 20,000NAN%00:00 (00:00)Wonderbox GamesWonderbox Games
136 Guilds Of Delenar Mar 22, 2019 $14.99N/A (N/A)0 .. 20,000NAN%00:00 (00:00)Batholith EntertainmentBatholith Entertainment
137 Avernum 3: Ruined World Jan 31, 2018 $19.99N/A (N/A)20,000 .. 50,00010%00:01 (00:00)Spiderweb SoftwareSpiderweb Software
138 Costume Quest Oct 14, 2011 $2.49N/A (N/A)200,000 .. 500,0000%00:00 (00:00)Double Fine ProductionsDouble Fine Productions
139 Wizardry 6: Bane of the Cosmic Forge Sep 10, 2013 $4.99N/A (N/A)50,000 .. 100,0000%00:00 (00:00)Sir-TechGamepot, Inc., Nightdive Studios
140 Wizardry 7: Crusaders of the Dark Savant Sep 10, 2013 $4.99N/A (N/A)100,000 .. 200,0000%00:00 (00:00)Sir-TechGamepot, Inc., Nightdive Studios
141 Epic Battle Fantasy 4 Feb 25, 2014 $11.99N/A (N/A)200,000 .. 500,0000%00:00 (00:00)Matt RoszakMatt Roszak
142 WazHack Feb 17, 2014 $9.99N/A (N/A)20,000 .. 50,0000%00:00 (00:00)WazWaz Games
143 Omerta - City of Gangsters Jan 31, 2013 $14.99N/A (N/A)200,000 .. 500,0000%00:00 (00:00)Haemimont GamesKalypso Media Digital
144 Avernum 6 May 11, 2012 $4.99N/A (N/A)20,000 .. 50,0000%00:00 (00:00)Spiderweb SoftwareSpiderweb Software
145 Eon Altar Jun 22, 2016 $4.99N/A (N/A)100,000 .. 200,0000%00:00 (00:00)Flying Helmet GamesFlying Helmet Games
146 Tales Across Time Apr 18, 2016 $2.99N/A (N/A)0 .. 20,0000%00:00 (00:00)Critical GamesCritical Games
147 Ground Breakers Jun 15, 2016 $0.99N/A (N/A)0 .. 20,0000%00:00 (00:00)UnitedIndieUnitedIndie
148 UFO Online: Invasion Jun 8, 2016 FreeN/A (N/A)100,000 .. 200,0000%00:00 (00:00)Bad PixelBad Pixel
149 Magic Potion Explorer Mar 11, 2016 $4.99N/A (N/A)0 .. 20,000NAN%00:00 (00:00)ARTIFACTSPLAYISM
150 Blades of the Righteous Mar 7, 2016 $2.99N/A (N/A)20,000 .. 50,0000%00:00 (00:00)Vladimir Slav, Coldwild GamesVladimir Slav, Coldwild Games
151 Zavix Tower Jul 21, 2016 $9.99N/A (N/A)20,000 .. 50,000NAN%00:00 (00:00)Batholith EntertainmentIndie Voyage
152 I am Setsuna Jul 19, 2016 $39.99N/A (N/A)50,000 .. 100,0000%00:00 (00:00)Tokyo RPG FactorySquare Enix
153 FINAL FANTASY X/X-2 HD Remaster May 12, 2016 $29.99N/A (N/A)500,000 .. 1,000,0000%00:00 (00:00)Square EnixSquare Enix
154 Dead Age Nov 4, 2016 $14.99N/A (N/A)200,000 .. 500,0000%00:00 (00:00)Silent DreamsHeadup
155 Bastard Bonds Jun 15, 2016 $10.99N/A (N/A)20,000 .. 50,000NAN%00:00 (00:00)BigfingersBigfingers
156 Megadimension Neptunia VII Jul 5, 2016 $19.99N/A (N/A)100,000 .. 200,0000%00:00 (00:00)Idea Factory, Compile HeartIdea Factory International
157 Nightingale Downs Oct 23, 2017 $1.99N/A (N/A)0 .. 20,0000%00:00 (00:00)SimProse StudiosSimProse Studios
158 Nomads of the Fallen Star Jan 30, 2019 $12.99N/A (N/A)0 .. 20,000NAN%00:00 (00:00)Huy PhanHuy Phan
159 American Patriots: Boston Tea Party Sep 19, 2017 $0.99N/A (N/A)0 .. 20,000NAN%00:00 (00:00)Cult SoftwareCult Software
160 MazeQuest 2 Dec 26, 2018 $2.99N/A (N/A)0 .. 20,000NAN%00:00 (00:00)Will Orr, Chris OrrOMB Media
161 Warbanners Oct 18, 2017 $19.99N/A (N/A)20,000 .. 50,0000%00:00 (00:00)Crasleen GamesCrasleen Games
162 Tale of Enki: Pilgrimage Jan 29, 2019 $9.99N/A (N/A)0 .. 20,000NAN%00:00 (00:00)Enkian Games, Howard Ross IVEnkian Games, Howard Ross IV
163 Warbands: Bushido Sep 15, 2017 FreeN/A (N/A)100,000 .. 200,0000%00:00 (00:00)Red Unit StudiosRed Unit Studios
164 CHECKMATE : Battle Arenas Dec 20, 2018 N/AN/A (N/A)0 .. 20,000NAN%00:00 (00:00)Infovine co.,Ltd.Infovine co.,Ltd.
165 Six-ear Macaque Oct 14, 2017 $0.99N/A (N/A)0 .. 20,000NAN%00:00 (00:00)FeatherFanFeatherFan
166 Warships 3D Jan 28, 2019 $6.99N/A (N/A)0 .. 20,000NAN%00:00 (00:00)ENC GamesENC Games
167 The Wanderer Jan 25, 2019 $2.99N/A (N/A)0 .. 20,0000%00:00 (00:00)Cult SoftwareCult Software
168 Puzzle Tactics Dec 1, 2017 $0.99N/A (N/A)0 .. 20,000NAN%00:00 (00:00)Robert AlvarezRobert Alvarez
169 Shieldwall Chronicles: Swords of the North Dec 16, 2018 $14.99N/A (N/A)0 .. 20,000NAN%00:00 (00:00)Wave Light Games Inc.Wave Light Games Inc.
170 Tiny Force Deluxe Oct 12, 2017 $5.99N/A (N/A)0 .. 20,0000%00:00 (00:00)Sinergia StudiosSinergia Studios
171 Rogue Empire: Dungeon Crawler RPG Jan 25, 2019 $14.99N/A (N/A)0 .. 20,000NAN%00:00 (00:00)Portal EntertainmentPortal Entertainment
172 WORLD OF FINAL FANTASY Nov 21, 2017 $24.99N/A (N/A)50,000 .. 100,0000%00:00 (00:00)Square EnixSquare Enix
173 Serment - Contract with a Devil Feb 1, 2019 $14.99N/A (N/A)0 .. 20,000NAN%00:00 (00:00)Nkt StudioSekai Project
174 Beastmancer Oct 5, 2017 $9.99N/A (N/A)0 .. 20,000NAN%00:00 (00:00)AutarcaAutarca
175 Invaders from Dimension X Jan 23, 2019 $11.99N/A (N/A)0 .. 20,000NAN%00:00 (00:00)YobowargamesTiny Battle Publishing
176 ❂ Heroes of Hexaluga ❂ Nov 20, 2017 $9.99N/A (N/A)0 .. 20,000NAN%00:00 (00:00)hedehede
177 Robothorium: Cyberpunk Dungeon Crawler Jan 31, 2019 $14.99N/A (N/A)0 .. 20,0000%00:00 (00:00)Goblinz StudioGoblinz Studio, Whisper Games
178 Bestiary of Sigillum Jan 22, 2019 $7.99N/A (N/A)0 .. 20,000NAN%00:00 (00:00)IntaglyphIntaglyph
179 Willy-Nilly Knight Nov 10, 2017 $14.99N/A (N/A)0 .. 20,0000%00:00 (00:00)Double Dice GamesDouble Dice Games
180 Himeko Sutori Jan 30, 2019 $22.99N/A (N/A)0 .. 20,000NAN%00:00 (00:00)Rockwell Studios, LLCRockwell Studios, LLC
181 Legend of Hand Sep 27, 2017 $6.99N/A (N/A)0 .. 20,000NAN%00:00 (00:00)Cloak and Dagger GamesCloak and Dagger Games
182 Age of Fear: The Free World Jan 18, 2019 FreeN/A (N/A)50,000 .. 100,000NAN%00:00 (00:00)Leslaw SliwkoAge of Fear
183 Ebony Spire: Heresy Nov 2, 2017 $6.99N/A (N/A)0 .. 20,0000%00:00 (00:00)Bearded Giant GamesBearded Giant Games
184 Guards of the Gate Jan 30, 2019 $9.99N/A (N/A)0 .. 20,000NAN%00:00 (00:00)Prince Game StudioPrince Game Studio
185 Erannorth Reborn Oct 17, 2019 $18.99N/A (N/A)0 .. 20,000NAN%00:00 (00:00)Spyridon ThalassinosSpyridon Thalassinos
186 Underhero Sep 19, 2018 $14.99N/A (N/A)0 .. 20,000NAN%00:00 (00:00)Paper Castle GamesPaper Castle Games
187 Geneforge 4: Rebellion Nov 1, 2006 $19.99N/A (N/A)50,000 .. 100,0000%00:00 (00:00)Spiderweb SoftwareSpiderweb Software
188 苍夜 Sep 4, 2018 $0.99N/A (N/A)0 .. 20,000NAN%00:00 (00:00)16airNingbing Games
189 GRANDIA HD Remaster Oct 15, 2019 $19.99N/A (N/A)0 .. 20,000100%06:01 (06:01)GAME ARTS, Sickhead Games, LLCGungHo Online Entertainment America, Inc.
190 Majula Frontier Sep 19, 2018 $14.99N/A (N/A)0 .. 20,000NAN%00:00 (00:00)EF Universe Games LLCEF Universe Games LLC
191 Geneforge 3 Apr 1, 2005 $19.99N/A (N/A)50,000 .. 100,0000%00:00 (00:00)Spiderweb SoftwareSpiderweb Software
192 Panzer Strategy Aug 31, 2018 $29.99N/A (N/A)0 .. 20,0000%00:00 (00:00)Starni GamesStarni Games
193 Legend of Keepers: Prologue Oct 10, 2019 FreeN/A (N/A)20,000 .. 50,000NAN%00:00 (00:00)Goblinz StudioGoblinz Studio
194 Age of Viking Conquest Sep 19, 2018 $4.99N/A (N/A)0 .. 20,000NAN%00:00 (00:00)Nemoïd AppsArgonauts Interactive
195 MISTOVER Oct 10, 2019 $29.99N/A (N/A)20,000 .. 50,000100%43:34 (43:34)KRAFTON, Inc.KRAFTON, Inc.
196 阿比斯的宝藏 - Treasure of abyss Sep 19, 2018 $3.49N/A (N/A)50,000 .. 100,000NAN%00:00 (00:00)HAN XUHAN XU
197 Geneforge 2 Jul 1, 2003 $19.99N/A (N/A)100,000 .. 200,0000%00:00 (00:00)Spiderweb SoftwareSpiderweb Software
198 Prodigy Tactics Sep 28, 2018 $19.99N/A (N/A)0 .. 20,0000%00:00 (00:00)Hanakai StudioForever Entertainment S. A., PlayWay S.A., Ultimate Games S.A.
199 The Bard's Tale IV: Barrows Deep Sep 18, 2018 N/AN/A (N/A)20,000 .. 50,0000%00:00 (00:00)inXile EntertainmentinXile Entertainment
200 Geneforge 1 Dec 1, 2001 $19.99N/A (N/A)100,000 .. 200,0000%00:00 (00:00)Spiderweb SoftwareSpiderweb Software
201 I am not a Monster: Complete Edition Sep 27, 2018 $12.99N/A (N/A)20,000 .. 50,0000%00:00 (00:00)CheerdealersAlawar Premium
202 Entre-Deux: Cursed Sep 12, 2018 $2.99N/A (N/A)0 .. 20,000NAN%00:00 (00:00)Mia Blais-CôtéMia Blais-Côté
203 Depth of Extinction Sep 27, 2018 $14.99N/A (N/A)0 .. 20,000NAN%00:00 (00:00)HOF StudiosHOF Studios
204 Lawless Lands Sep 10, 2018 $7.99N/A (N/A)0 .. 20,000NAN%00:00 (00:00)Corrosive Studios LLCCorrosive Studios LLC
205 Wizard101 Sep 6, 2018 FreeN/A (N/A)200,000 .. 500,000NAN%00:00 (00:00)KingsIsle EntertainmentKingsIsle Entertainment
206 Final Theory Sep 21, 2018 $9.99N/A (N/A)0 .. 20,000NAN%00:00 (00:00)MonticubeMonticube
207 Geneforge 5: Overthrow Nov 1, 2008 $19.99N/A (N/A)100,000 .. 200,0000%00:00 (00:00)Spiderweb SoftwareSpiderweb Software
208 DRAGON QUEST XI: Echoes of an Elusive Age - Digital Edition of Light Sep 4, 2018 $59.99N/A (N/A)200,000 .. 500,00011.11%01:47 (00:35)Square EnixSquare Enix
209 Retaliation: Enemy Mine Jan 22, 2016 $4.99N/A (N/A)20,000 .. 50,000NAN%00:00 (00:00)XTeam Software Solutions srlsForgotten Empires LLC, XTeam Software Solutions srls
210 Marble Duel Nov 12, 2015 $14.99N/A (N/A)50,000 .. 100,0000%00:00 (00:00)HeroCraft KrasnodarHeroCraft
211 Your Quest Apr 13, 2015 FreeN/A (N/A)20,000 .. 50,0000%00:00 (00:00)Oblivionburn ProductionsOblivionburn Productions
212 Hyperdimension Neptunia Re;Birth3 V Generation Oct 30, 2015 $14.99N/A (N/A)200,000 .. 500,0000%00:00 (00:00)Idea Factory, Compile Heart, FelistellaIdea Factory, Idea Factory International
213 Blood of Magic Dec 18, 2015 $9.99N/A (N/A)0 .. 20,0000%00:00 (00:00)Stoneworks GamesStoneworks Games
214 FINAL FANTASY VI Dec 16, 2015 $15.99N/A (N/A)200,000 .. 500,0000%00:00 (00:00)Square EnixSquare Enix
215 Elemental Heroes Mar 3, 2016 FreeN/A (N/A)50,000 .. 100,0000%00:00 (00:00)mPower Games StudiomPower Games Studio
216 Gigachess Dec 15, 2015 $3.99N/A (N/A)0 .. 20,000NAN%00:00 (00:00)Drixxel SoftDrixxel Soft
217 Balrum Feb 29, 2016 $14.99N/A (N/A)20,000 .. 50,0000%00:00 (00:00)Balcony TeamBalcony Team
218 Immortal Empire Dec 3, 2015 FreeN/A (N/A)100,000 .. 200,0000%00:00 (00:00)Tactic Studios Inc.Tactic Studios Inc.
219 Hieroglyphika Feb 3, 2016 $9.99N/A (N/A)0 .. 20,000NAN%00:00 (00:00)M. HankaLiu Lidan
220 Pharmakon Jul 20, 2017 $3.99N/A (N/A)0 .. 20,000NAN%00:00 (00:00)Visumeca GamesVisumeca Games
221 鸿源战纪 - Tales of Hongyuan Aug 31, 2017 $14.99N/A (N/A)0 .. 20,0000%00:00 (00:00)Hongyuan GameHongyuan Game
222 Kursk - Battle at Prochorovka Jul 13, 2017 $12.99N/A (N/A)0 .. 20,000NAN%00:00 (00:00)YobowargamesSlitherine Ltd.
223 Strangers of the Power Aug 17, 2017 $1.99N/A (N/A)0 .. 20,0000%00:00 (00:00)Tuomo LaineTuomo's games
224 Catacombs 1: Demon War Jul 12, 2017 $1.99N/A (N/A)0 .. 20,0000%00:00 (00:00)SimProse StudiosSimProse Studios
225 Chateau Garden Jul 7, 2017 $8.99N/A (N/A)0 .. 20,0000%00:00 (00:00)Makivision Gamesfamilyplay
226 Garden Tale Sep 13, 2017 $2.99N/A (N/A)0 .. 20,000NAN%00:00 (00:00)Bonion GamesPLAYISM
227 Ragna Maya Sep 8, 2017 $4.99N/A (N/A)0 .. 20,0000%00:00 (00:00)Peter Junior LeonarPeter Junior Leonar
228 Clatter Dec 10, 2018 $9.99N/A (N/A)0 .. 20,0000%00:00 (00:00)Facepunch StudiosFacepunch Studios
229 Astoria: The Holders of Power Saga Aug 2, 2017 $1.99N/A (N/A)0 .. 20,000NAN%00:00 (00:00)Golden Unicorn Gaming IncGolden Unicorn Gaming Inc
230 Stash Sep 7, 2017 FreeN/A (N/A)100,000 .. 200,0000%00:00 (00:00)FrogdiceFrogdice
231 Edge Of Eternity Dec 5, 2018 $19.99N/A (N/A)20,000 .. 50,0000%00:00 (00:00)Midgar StudioDear Villagers
232 位面穿越者-三国传(A Bit Crosser-Three Kingdoms) Jul 25, 2017 $1.99N/A (N/A)20,000 .. 50,0000%00:00 (00:00)singisingi
233 Age of Fear 3: The Legend Sep 1, 2017 $24.99N/A (N/A)0 .. 20,0000%00:00 (00:00)Leslaw SliwkoAge of Fear
234 Iron Tides Jul 24, 2017 $2.99N/A (N/A)0 .. 20,000NAN%00:00 (00:00)Crash Wave Games Inc.Crash Wave Games Inc.
235 Endhall Dec 4, 2018 $2.99N/A (N/A)0 .. 20,000NAN%00:00 (00:00)HeartBeast Studios L.L.C.HeartBeast Studios L.L.C.
236 Flotilla 2 Aug 17, 2018 $9.99N/A (N/A)0 .. 20,000NAN%00:00 (00:00)Blendo GamesBlendo Games
237 Encased: A Sci-Fi Post-Apocalyptic RPG Sep 26, 2019 $29.99N/A (N/A)20,000 .. 50,0000%00:00 (00:00)Dark Crystal GamesBlack Tower Entertainment
238 The Adventure of Magical Girl Jun 21, 2018 $1.19N/A (N/A)0 .. 20,000NAN%00:00 (00:00)Windward_BirdsXNZONE
239 Astralojia: Episode 1 Sep 1, 2019 $4.99N/A (N/A)0 .. 20,000NAN%00:00 (00:00)Astralojia StudiosAstralojia Studios
240 Steven Universe: Save the Light Aug 13, 2018 $24.99N/A (N/A)0 .. 20,0000%00:00 (00:00)Grumpyface Studios, Finite Reflection StudiosCartoon Network Games
241 咔叽探险队 Kaki Raid Sep 25, 2019 FreeN/A (N/A)0 .. 20,000NAN%00:00 (00:00)Kaki StudioFeiyu Technology
242 Find & Destroy: Tank Strategy Jun 12, 2018 FreeN/A (N/A)20,000 .. 50,000NAN%00:00 (00:00)mPower Games StudiomPower Games Studio
243 Monster Sanctuary Aug 28, 2019 $13.49N/A (N/A)20,000 .. 50,000NAN%00:00 (00:00)Moi Rai GamesTeam17 Digital Ltd
244 Star Traders: Frontiers Jul 31, 2018 $14.99N/A (N/A)200,000 .. 500,0000%00:00 (00:00)Trese BrothersTrese Brothers
245 Voidlifted Sep 18, 2019 $6.99N/A (N/A)0 .. 20,000NAN%00:00 (00:00)Michał KarbowiakMichał Karbowiak
246 Nobunaga's Shadow Jun 11, 2018 $4.99N/A (N/A)0 .. 20,000NAN%00:00 (00:00)Ultaan GamesUltaan Games
247 Knights of the Chalice Aug 23, 2019 $19.99N/A (N/A)0 .. 20,000NAN%00:00 (00:00)Heroic Fantasy Games Dot ComHeroic Fantasy Games Dot Com
248 Nexoria: Dungeon Rogue Heroes Sep 16, 2019 $4.99N/A (N/A)0 .. 20,000NAN%00:00 (00:00)TERNOXTERNOX, Victory Road
249 Lucid Path Aug 27, 2018 $4.99N/A (N/A)0 .. 20,000NAN%00:00 (00:00)GrevicorGrevicor
250 RogueVerse Aug 22, 2019 $9.99N/A (N/A)0 .. 20,000NAN%00:00 (00:00)FoumartGamesFoumartGames
251 Paper Dungeons Crawler Jul 17, 2018 $9.99N/A (N/A)0 .. 20,000NAN%00:00 (00:00)Stephane ValverdeAgent Mega
252 Loser Reborn / 废柴转生 / 魯蛇轉生 / ルーザーリボーン Sep 13, 2019 $4.99N/A (N/A)0 .. 20,000NAN%00:00 (00:00)Sounding Stone / 老奉毊Sounding Stone / 老奉毊
253 Metal Brigade Tactics Aug 27, 2018 $9.99N/A (N/A)0 .. 20,000NAN%00:00 (00:00)Busking SoftwareBusking Software
254 Dragon Star Varnir Oct 8, 2019 $49.99N/A (N/A)0 .. 20,000NAN%00:00 (00:00)Idea Factory, Compile HeartIdea Factory International
255 Bleeding Sun Jul 14, 2018 $3.99N/A (N/A)0 .. 20,000NAN%00:00 (00:00)Jaime Paz LopesJaime Paz Lopes
256 Last Regiment Sep 9, 2019 $19.99N/A (N/A)0 .. 20,000NAN%00:00 (00:00)Boomzap EntertainmentBoomzap Entertainment
257 Battle Squares Aug 23, 2018 $6.99N/A (N/A)0 .. 20,000NAN%00:00 (00:00)Caleb ChalmersAtlas "Incawporated"
258 Last Day of Rome Sep 6, 2019 $11.99N/A (N/A)0 .. 20,000NAN%00:00 (00:00)Hamsters GamingHamsters Gaming
259 Age of Gladiators II: Rome Aug 21, 2018 $7.99N/A (N/A)0 .. 20,000NAN%00:00 (00:00)Creative Storm EntertainmentCreative Storm Entertainment
260 Cardaria Sep 28, 2019 FreeN/A (N/A)0 .. 20,000NAN%00:00 (00:00)TripleSkyTripleSky
261 Sin Slayers Sep 5, 2019 $14.99N/A (N/A)0 .. 20,000NAN%00:00 (00:00)goonswarmBlack Tower Entertainment
262 Mind Over Mushroom Aug 17, 2018 $14.99N/A (N/A)0 .. 20,000NAN%00:00 (00:00)Binary JellyfishBinary Jellyfish
263 Dungeon Deathball Jul 6, 2018 $4.99N/A (N/A)0 .. 20,000NAN%00:00 (00:00)Matt GlanvilleMatt Glanville
264 Monster RPG 2 Oct 12, 2015 $2.99N/A (N/A)0 .. 20,0000%00:00 (00:00)NooskewlNooskewl
265 GRANDIA II HD Remaster Aug 24, 2015 $19.99N/A (N/A)50,000 .. 100,00033.33%01:50 (00:55)GAME ARTS Co., Ltd., Sickhead Games, LLCGungHo Online Entertainment America, Inc.
266 Legena: Union Tides Oct 8, 2015 FreeN/A (N/A)0 .. 20,000NAN%00:00 (00:00)Grandpa PixelGrandpa Pixel
267 AntharioN Jul 15, 2015 $14.99N/A (N/A)0 .. 20,0000%00:00 (00:00)Orphic SoftwareOrphic Software
268 Devils & Demons Oct 6, 2015 $9.99N/A (N/A)20,000 .. 50,0000%00:00 (00:00)HandyGamesHandyGames
269 FINAL FANTASY V Sep 24, 2015 $15.99N/A (N/A)100,000 .. 200,0000%00:00 (00:00)Square EnixSquare Enix
270 Templar Battleforce Sep 21, 2015 $9.99N/A (N/A)20,000 .. 50,0000%00:00 (00:00)Trese BrothersTrese Brothers
271 The Dwarf Run Oct 21, 2015 $8.99N/A (N/A)20,000 .. 50,0000%00:00 (00:00)Alexander MirdzveliAlexander Mirdzveli
272 Renowned Explorers: International Society Sep 2, 2015 $19.99N/A (N/A)200,000 .. 500,0000%00:00 (00:00)Abbey GamesAbbey Games
273 Ancestory Oct 13, 2015 $14.99N/A (N/A)0 .. 20,000NAN%00:00 (00:00)Kajak GamesKajak Games
274 Fallen: A2P Protocol Aug 14, 2015 $9.99N/A (N/A)20,000 .. 50,0000%00:00 (00:00)Red KatanaRed Katana
275 Chronicles of a Dark Lord: Tides of Fate Remastered Mar 31, 2017 $2.99N/A (N/A)0 .. 20,0000%00:00 (00:00)Kisareth StudiosKisareth Studios
276 Genesia Legacy: Ultimate Domain May 9, 2017 $19.99N/A (N/A)0 .. 20,000NAN%00:00 (00:00)Thomas ZIGHEMThomas ZIGHEM
277 Mighty Party Mar 30, 2017 FreeN/A (N/A)200,000 .. 500,0000%00:00 (00:00)Panoramik IncPanoramik Inc
278 Microgons Mar 27, 2017 FreeN/A (N/A)20,000 .. 50,000NAN%00:00 (00:00)DOG HOGGLERDOG HOGGLER
279 NEXT JUMP: Shmup Tactics Apr 28, 2017 $4.99N/A (N/A)0 .. 20,0000%00:00 (00:00)Post Mortem PixelsPost Mortem Pixels
280 Monsters' Den: Godfall Jul 6, 2017 $14.99N/A (N/A)20,000 .. 50,000NAN%00:00 (00:00)MonstrumMonstrum
281 Army General Apr 26, 2017 $19.99N/A (N/A)0 .. 20,0000%00:00 (00:00)PhobetorPlug In Digital
282 Swords and Sandals 2 Redux Jun 29, 2017 $8.99N/A (N/A)0 .. 20,0000%00:00 (00:00)Whiskeybarrel StudioseGames.com
283 KROSMAGA Apr 12, 2017 FreeN/A (N/A)100,000 .. 200,0000%00:00 (00:00)Ankama StudioAnkama Games
284 The Last Warlord | 三國志漢末霸業 May 26, 2017 $16.99N/A (N/A)20,000 .. 50,00014.29%00:01 (00:00)LongYou Game StudioLongYou Tech Ltd
285 Shardbound Apr 6, 2017 FreeN/A (N/A)200,000 .. 500,0000%00:00 (00:00)Spiritwalk GamesSpiritwalk Games
286 StarCrawlers May 23, 2017 $19.99N/A (N/A)20,000 .. 50,0000%00:00 (00:00)Juggernaut GamesJuggernaut Games
287 Galaxy Squad Jul 15, 2019 $9.99N/A (N/A)0 .. 20,0000%00:00 (00:00)Kazakov OlegKazakov Oleg
288 ILLUSION May 9, 2018 $1.99N/A (N/A)0 .. 20,000NAN%00:00 (00:00)LunaRolexLerLunaRolexLer
289 Tactics & Strategy Master:Joan of Arc Mar 28, 2018 $4.99N/A (N/A)0 .. 20,000NAN%00:00 (00:00)singisingi
290 Hazardous Space Apr 30, 2018 $3.99N/A (N/A)0 .. 20,0000%00:00 (00:00)Coffee Cat GamesBlack Tower Entertainment
291 Heroes of Shaola Aug 1, 2019 $4.79N/A (N/A)0 .. 20,000NAN%00:00 (00:00)Smiling Dragon RPG StudiosSmiling Dragon RPG Studios, Opium Pulses Entertainment
292 Endless RPG Jul 10, 2019 $11.99N/A (N/A)0 .. 20,000NAN%00:00 (00:00)KezarusKezarus
293 Demon's Rise - War for the Deep Apr 29, 2018 $6.99N/A (N/A)0 .. 20,0000%00:00 (00:00)Wave Light Games Inc.Wave Light Games Inc.
294 Dark Bestiary Jul 26, 2019 $11.99N/A (N/A)0 .. 20,000NAN%00:00 (00:00)QdQd
295 Survive in Angaria Mar 22, 2018 $2.99N/A (N/A)0 .. 20,0000%00:00 (00:00)Cloaz StudioCloaz Studio
296 Dragon Call Jul 10, 2019 $9.99N/A (N/A)0 .. 20,000NAN%00:00 (00:00)organelemonhouseorganelemonhouse
297 Pirate Code Apr 24, 2018 $9.99N/A (N/A)0 .. 20,0000%00:00 (00:00)Circuit HiveCircuit Hive
298 Dead Hand Jul 26, 2019 $24.99N/A (N/A)0 .. 20,000NAN%00:00 (00:00)One Man Army GamesOne Man Army Games
299 Turn-Based Champion Jun 2, 2018 $3.99N/A (N/A)0 .. 20,000NAN%00:00 (00:00)Searchlight GamesSearchlight Games
300 世界尽头的蔷薇花园 Jun 19, 2019 $0.99N/A (N/A)0 .. 20,000NAN%00:00 (00:00)WalhalancsWalhalancs
301 Demon's Rise - Lords of Chaos Apr 24, 2018 $6.99N/A (N/A)0 .. 20,0000%00:00 (00:00)Wave Light Games Inc.Wave Light Games Inc.
302 Iratus: Lord of the Dead Jul 24, 2019 $24.99N/A (N/A)50,000 .. 100,0000%00:00 (00:00)UnfrozenDaedalic Entertainment
303 Football, Tactics & Glory Jun 1, 2018 $24.99N/A (N/A)20,000 .. 50,000NAN%00:00 (00:00)CreoteamCreoteam, Toplitz Productions
304 Dungeon Scavenger Aug 21, 2019 $3.74N/A (N/A)0 .. 20,000NAN%00:00 (00:00)Vidama Software LLCVidama Software LLC
305 Monster RPG 3 Apr 23, 2018 $4.99N/A (N/A)0 .. 20,000NAN%00:00 (00:00)NooskewlNooskewl
306 Viola Jul 23, 2019 $9.99N/A (N/A)0 .. 20,000NAN%00:00 (00:00)Jelle van DoorneJelle van Doorne
307 Strangers of the Power 2 May 21, 2018 $3.99N/A (N/A)0 .. 20,0000%00:00 (00:00)Tuomo LaineTuomo's games
308 Here Be Dragons Aug 16, 2019 $14.99N/A (N/A)0 .. 20,000NAN%00:00 (00:00)Red Zero GamesRed Zero Games
309 Infinite Survival Apr 23, 2018 $3.99N/A (N/A)0 .. 20,000NAN%00:00 (00:00)Infinine GamesInfinine Games
310 Swords & Souls: Neverseen Jul 22, 2019 $14.99N/A (N/A)50,000 .. 100,0000%00:00 (00:00)SoulGame StudioArmor Games Studios
311 Dragon Cliff May 11, 2018 $9.99N/A (N/A)200,000 .. 500,0000%00:00 (00:00)Meta InteractionMeta Interaction
312 Tactics V: "Obsidian Brigade" Aug 8, 2019 $24.99N/A (N/A)0 .. 20,000NAN%00:00 (00:00)From Nothing Game StudiosFrom Nothing Game Studios
313 Please The Gods Jul 17, 2019 $9.99N/A (N/A)0 .. 20,000NAN%00:00 (00:00)Surma GamesSpawn Point OSK
314 Third Front: WWII May 11, 2018 $7.99N/A (N/A)20,000 .. 50,0000%00:00 (00:00)Hamsters GamingHamsters Gaming
315 Legends of Amberland: The Forgotten Crown Aug 1, 2019 $19.99N/A (N/A)0 .. 20,000NAN%00:00 (00:00)Silver Lemur GamesSilver Lemur Games
316 8-Bit Adventures: The Forgotten Journey Remastered Edition May 22, 2015 $9.99N/A (N/A)20,000 .. 50,0000%00:00 (00:00)Critical GamesCritical Games
317 Social Justice Warriors May 12, 2014 $7.99N/A (N/A)0 .. 20,000NAN%00:00 (00:00)Nonadecimal CreativeNonadecimal Creative
318 Epic Arena May 5, 2015 FreeN/A (N/A)100,000 .. 200,0000%00:00 (00:00)Shadow MastersShadow Masters
319 Agent Awesome Feb 17, 2015 $1.99N/A (N/A)200,000 .. 500,0000%00:00 (00:00)Chaos IndustriesKISS ltd
320 Crystal Story II Feb 6, 2015 $2.99N/A (N/A)0 .. 20,0000%00:00 (00:00)Emmanuel Salva CruzEmmanuel Salva Cruz
321 Pixel Heroes: Byte & Magic Feb 6, 2015 $9.99N/A (N/A)50,000 .. 100,0000%00:00 (00:00)The BitfatherHeadup
322 Paper Dungeons Apr 20, 2015 $9.99N/A (N/A)0 .. 20,0000%00:00 (00:00)Stephane Valverde, Leslie ValverdeAgent Mega
323 Age of Fear: The Undead King Jun 26, 2015 $19.99N/A (N/A)20,000 .. 50,0000%00:00 (00:00)Leslaw SliwkoAge of Fear
324 Age of Fear 2: The Chaos Lord GOLD Mar 27, 2016 $19.99N/A (N/A)20,000 .. 50,0000%00:00 (00:00)Leslaw SliwkoAge of Fear
325 Minimon Mar 25, 2015 $9.99N/A (N/A)0 .. 20,000NAN%00:00 (00:00)Lunar LabsLunar Labs
326 Waste Walkers Jun 1, 2015 $9.99N/A (N/A)20,000 .. 50,0000%00:00 (00:00)Corrosive Studios LLCCorrosive Studios LLC
327 FLAMBERGE Mar 25, 2015 $9.99N/A (N/A)0 .. 20,000NAN%00:00 (00:00)HYDEZEKE
328 Hyperdimension Neptunia Re;Birth2: Sisters Generation May 29, 2015 $14.99N/A (N/A)200,000 .. 500,0000%00:00 (00:00)Idea Factory, Compile Heart, FelistellaIdea Factory, Idea Factory International
329 Doom & Destiny Mar 18, 2015 $9.99N/A (N/A)50,000 .. 100,000NAN%00:00 (00:00)Heartbit InteractiveHeartbit Interactive
330 Low Magic Age Jan 10, 2017 $9.99N/A (N/A)50,000 .. 100,0000%00:00 (00:00)Low Magic StudiosLow Magic Studios
331 Fairy Fencer F Advent Dark Force Feb 14, 2017 $19.99N/A (N/A)50,000 .. 100,0000%00:00 (00:00)IDEA FACTORY, COMPILE HEARTIdea Factory International
332 Moekuri: Adorable + Tactical SRPG Dec 16, 2016 $11.99N/A (N/A)20,000 .. 50,0000%00:00 (00:00)MokyuSoftCulture Select
333 Star Merc Feb 10, 2017 $1.99N/A (N/A)50,000 .. 100,0000%00:00 (00:00)D247 GamesNew Worlds Games
334 天使帝國四《Empire of Angels IV》 Dec 14, 2016 $14.99N/A (N/A)20,000 .. 50,0000%00:00 (00:00)SOFTSTAR ENTERTAINMENT INC.SOFTSTAR ENTERTAINMENT INC.
335 Civil War: Battle of Petersburg Feb 8, 2017 $0.99N/A (N/A)0 .. 20,0000%00:00 (00:00)Cult SoftwareCult Software
336 Winged Sakura: Demon Civil War Dec 8, 2016 $9.99N/A (N/A)0 .. 20,000NAN%00:00 (00:00)WINGED SAKURA GAMESWINGED SAKURA GAMES
337 Soda Dungeon Feb 6, 2017 FreeN/A (N/A)500,000 .. 1,000,0000%00:00 (00:00)AN Productions, PoxpowerArmor Games Studios
338 The Tenth Line Mar 17, 2017 $9.99N/A (N/A)0 .. 20,000NAN%00:00 (00:00)Sungazer SoftwareSungazer Software
339 MOBIUS FINAL FANTASY Feb 5, 2017 FreeN/A (N/A)1,000,000 .. 2,000,0000%00:00 (00:00)Square EnixSquare Enix
340 Pastelia Stories Mar 16, 2017 $9.99N/A (N/A)20,000 .. 50,0000%00:00 (00:00)Maru Project Develop TeamMaru Project Develop Team
341 Civil War: 1861 Feb 1, 2017 $9.99N/A (N/A)0 .. 20,0000%00:00 (00:00)HexWar GamesHexWar Games
342 Atelier Firis: The Alchemist and the Mysterious Journey / フィリスのアトリエ ~不思議な旅の錬金術士~ Mar 7, 2017 $59.99N/A (N/A)20,000 .. 50,0000%00:00 (00:00)KOEI TECMO GAMES CO., LTD.KOEI TECMO GAMES CO., LTD.
343 Tactical Genius Online Jan 20, 2017 N/AN/A (N/A)50,000 .. 100,0000%00:00 (00:00)Pixeltales.ruPixeltales.ru
344 Holy Potatoes! We’re in Space?! Feb 14, 2017 $14.99N/A (N/A)50,000 .. 100,0000%00:00 (00:00)Daylight StudiosDaedalic Entertainment
345 Goblin Squad - Total Division May 10, 2019 $9.99N/A (N/A)0 .. 20,000NAN%00:00 (00:00)Event Horizon Studios34BigThings srl
346 Chessaria: The Tactical Adventure (Chess) Mar 8, 2018 $19.99N/A (N/A)0 .. 20,000NAN%00:00 (00:00)Pixel WizardsPixel Wizards
347 Ivanoile ~ Christalixeur Corruption Jun 6, 2019 $1.99N/A (N/A)0 .. 20,000NAN%00:00 (00:00)Mia Blais-CôtéMia Blais-Côté
348 Sea Battle: Through the Ages Feb 19, 2018 $4.99N/A (N/A)0 .. 20,0000%00:00 (00:00)Real FightingReal Fighting
349 AVARIAvs May 9, 2019 $19.99N/A (N/A)0 .. 20,000NAN%00:00 (00:00)Juncture MediaJuncture Media
350 EARTHLOCK Mar 8, 2018 $29.99N/A (N/A)0 .. 20,0000%00:00 (00:00)Snowcastle GamesSnowcastle Games
351 Il Sole e la Luna Jun 4, 2019 $1.99N/A (N/A)0 .. 20,000NAN%00:00 (00:00)UNGame ProductorUNGame Productor
352 Run For Cover May 3, 2019 $14.99N/A (N/A)0 .. 20,000NAN%00:00 (00:00)Michail OstrowskiMichail Ostrowski
353 Attrition: Tactical Fronts Mar 6, 2018 $14.99N/A (N/A)0 .. 20,0000%00:00 (00:00)Cardboard KeepCardboard Keep
354 Glorious Companions Jun 4, 2019 $29.99N/A (N/A)0 .. 20,0000%00:00 (00:00)Ancient Forge StudioAncient Forge Studio
355 Strangers of the Power 3 May 1, 2019 $6.99N/A (N/A)0 .. 20,000NAN%00:00 (00:00)Tuomo Laine Tuomo's games
356 Deck Hunter May 30, 2019 $14.99N/A (N/A)0 .. 20,000NAN%00:00 (00:00)L_DravenL_Draven
357 Grim Town: Battle Tales Mar 21, 2018 $3.99N/A (N/A)0 .. 20,000NAN%00:00 (00:00)Wonderbox GamesWonderbox Games
358 Bombix Mar 2, 2018 FreeN/A (N/A)100,000 .. 200,0000%00:00 (00:00)Pragmatix LtdPragmatix Ltd
359 Dead Monarchy Jun 18, 2019 $9.99N/A (N/A)0 .. 20,000NAN%00:00 (00:00)Dead Monarchy StudiosDead Monarchy Studios
360 Army of Squirrels Feb 27, 2018 $0.99N/A (N/A)0 .. 20,0000%00:00 (00:00)JumiboisSpawn Point OSK
361 Battle Bolts May 23, 2019 $9.99N/A (N/A)0 .. 20,000NAN%00:00 (00:00)Shot Second, CroteamCroteam Incubator
362 Cruz Brothers Mar 19, 2018 $9.99N/A (N/A)0 .. 20,0000%00:00 (00:00)DCF StudiosDCF Studios
363 WARED Jun 19, 2019 $3.99N/A (N/A)0 .. 20,000NAN%00:00 (00:00)Rostislavs LihacsPocTuK Corporation
364 Conglomerate 451 May 23, 2019 $19.99N/A (N/A)0 .. 20,000NAN%00:00 (00:00)RuneHeads1C Entertainment
365 Millidor Mar 15, 2018 FreeN/A (N/A)20,000 .. 50,0000%00:00 (00:00)Smart Online GamesSmart Online Games
366 Age of Fear: The Undead King GOLD Jun 11, 2019 $24.99N/A (N/A)0 .. 20,000NAN%00:00 (00:00)Leslaw SliwkoAge of Fear
367 Azure Saga: Pathfinder Mar 13, 2018 $12.99N/A (N/A)0 .. 20,000NAN%00:00 (00:00)MassHive MediaMassHive Media
368 HyperRogue Jan 16, 2015 $4.99N/A (N/A)20,000 .. 50,0000%00:00 (00:00)Zeno RogueZeno Rogue
369 RESONANCE OF FATE/END OF ETERNITY 4K/HD EDITION Oct 17, 2018 $34.99N/A (N/A)20,000 .. 50,0000%00:00 (00:00)tri-Acetri-Ace
370 Darkwind: War on Wheels Aug 22, 2014 FreeN/A (N/A)200,000 .. 500,0000%00:00 (00:00)Psychic SoftwarePsychic Software
371 Chronicles of a Dark Lord: Episode 1 Tides of Fate Complete Dec 19, 2014 $0.99N/A (N/A)50,000 .. 100,0000%00:00 (00:00)Kisareth StudiosKisareth Studios
372 Hex Gambit Oct 15, 2018 N/AN/A (N/A)0 .. 20,000NAN%00:00 (00:00)One Man Left StudiosOne Man Left Studios
373 Battleships and Carriers - WW2 Battleship Game Nov 15, 2018 $11.99N/A (N/A)0 .. 20,000NAN%00:00 (00:00)Light Strategy SeriesSLS
374 Rime Berta Dec 16, 2014 $14.99N/A (N/A)20,000 .. 50,0000%00:00 (00:00)NEXT-SOFT+PLAYISM
375 Pantheon Oct 4, 2018 $1.99N/A (N/A)0 .. 20,000NAN%00:00 (00:00)Interdimensional DesignsInterdimensional Designs
376 Heroes of Steel RPG Apr 23, 2014 $9.99N/A (N/A)0 .. 20,000NAN%00:00 (00:00)Trese BrothersTrese Brothers
377 Of Gods and Men: The Daybreak Empire Nov 9, 2018 $7.99N/A (N/A)0 .. 20,000NAN%00:00 (00:00)Dead Genre StudiosDead Genre Studios
378 Vigilantes Oct 3, 2018 $14.99N/A (N/A)0 .. 20,000NAN%00:00 (00:00)Timeslip SoftworksTimeslip Softworks
379 Braveland Mar 17, 2014 $4.99N/A (N/A)5,000,000 .. 10,000,0000%00:00 (00:00)Tortuga TeamTortuga Team
380 Kaiju Big Battel: Fighto Fantasy Oct 30, 2018 $9.99N/A (N/A)0 .. 20,000NAN%00:00 (00:00)Paul HarringtonSuper Walrus Games
381 Hell Nov 13, 2014 $29.99N/A (N/A)0 .. 20,000NAN%00:00 (00:00)Hunted Cow StudiosSlitherine Ltd.
382 Epic Battle Fantasy 5 Nov 30, 2018 $14.99N/A (N/A)100,000 .. 200,0000%00:00 (00:00)Matt RoszakMatt Roszak
383 Tactics & Strategy Master 2:Princess of Holy Light(圣光战姬) Oct 30, 2018 $7.99N/A (N/A)0 .. 20,000NAN%00:00 (00:00)singisingi
384 Sproggiwood Oct 24, 2014 $14.99N/A (N/A)100,000 .. 200,0000%00:00 (00:00)Freehold GamesFreehold Games
385 Kings' Cross Nov 27, 2018 $2.99N/A (N/A)0 .. 20,000NAN%00:00 (00:00)Azorian, kron0s_alexey, Pavel_BalakinElina Faritovna Balakina
386 Dark Gates Jan 26, 2015 $3.99N/A (N/A)0 .. 20,000NAN%00:00 (00:00)DFour GamesDFour Games
387 Battle For Korsun Oct 26, 2018 $15.99N/A (N/A)0 .. 20,000NAN%00:00 (00:00)YobowargamesSlitherine Ltd.
388 FINAL FANTASY XIII Oct 9, 2014 $15.99N/A (N/A)500,000 .. 1,000,0000%00:00 (00:00)Square EnixSquare Enix
389 CARDCORE Nov 26, 2018 FreeN/A (N/A)20,000 .. 50,000NAN%00:00 (00:00)Azorian, kron0s_alexey, Pavel_BalakinElina Faritovna Balakina
390 战术狂想3-枪战足球(Chimera of Tactics 3-Gun and Soccer) Oct 23, 2018 $3.99N/A (N/A)0 .. 20,000NAN%00:00 (00:00)自由愉悦小黄猫(Free pleasure little yellow cat)自由愉悦小黄猫(Free pleasure little yellow cat)
391 Das Geisterschiff / The Ghost Ship Nov 24, 2018 $9.99N/A (N/A)0 .. 20,000NAN%00:00 (00:00)Graverobber FoundationGraverobber Foundation
392 Chronicles of a Dark Lord: Episode II War of The Abyss Jan 16, 2015 $1.99N/A (N/A)50,000 .. 100,0000%00:00 (00:00)Kisareth StudiosKisareth Studios
393 Megadimension Neptunia VIIR Oct 22, 2018 $29.99N/A (N/A)20,000 .. 50,0000%00:00 (00:00)IDEA FACTORY, COMPILE HEARTIdea Factory International, Inc.
394 FINAL FANTASY IV Sep 17, 2014 $15.99N/A (N/A)200,000 .. 500,0000%00:00 (00:00)Square Enix, DotEmu SAS.Square Enix
395 Sanctus Mortem Nov 16, 2018 $9.99N/A (N/A)0 .. 20,000NAN%00:00 (00:00)Kisareth StudiosKisareth Studios
Overview

Turn-Based Combat

Games with this tag: 395
Average userscore: N/A%
Average metascore: 75.65%
Average playtime: 06:43
Total copies owned: 51,330,000
Average price: $14.44
Help

Owners: Estimated number of people owning this game. The number might be way too small for new releases and sometimes way too big for games that had free weekend event recently. Read more on About page.

Playtime: Average hours played in total per person that have actually launched this game since March 2009. This time is calculated for the whole lifetime, not for the particular year.

Average score: Average users and metacritic score for all games with this score assigned.

Average playtime: Average lifetime playtime for all games where this data is available.

Games in this genre: Self-explaining - number of games with this tag. Only inculdes games with sales data available.

Total copies owned: Refers to total copies of games with this tag acquired by users for the lifetime. Includes copies sold, downloaded for free and given out.

This number might be too small for recently released games or too big for games that had a free weekend in the last couple of months.

Graphs

Login required.

Please register or log in to see this information.

Login required.

Please register or log in to see this information.